Beale AFB, CA

4:18 AM PDT on October 21, 2017 (GMT -0700)
Beale Air Force Base

Weather History for KBAB - July, 2013

Change the Weather History Date:

Thursday, July 4, 2013

  Actual Average Record
Temperature  
Mean Temperature 92 °F -  
Max Temperature 109 °F 90 °F 109 °F (2013)
Min Temperature 77 °F 62 °F 58 °F (2010)
Cooling Degree Days 28    
Growing Degree Days 42 (Base 50)    
Moisture  
Dew Point 63 °F    
Average Humidity 41    
Maximum Humidity 76    
Minimum Humidity 14    
Precipitation  
Precipitation 0.00 in - - ()
Sea Level Pressure  
Sea Level Pressure 29.86 in    
Wind  
Wind Speed 7 mph (WNW)    
Max Wind Speed 14 mph    
Max Gust Speed -    
Visibility 10 miles    
Events      
Averages and records for this station are not official NWS values.
T = Trace of Precipitation, MM = Missing Value Source: NWS Daily Summary

Daily Weather History Graph

Daily Weather History Graph

Search for Another Location

Airport or City:

Trip Planner

Search our weather history database for the weather conditions in past years. The results will help you decide how hot, cold, wet, or windy it might be!

Date:

Astronomy

Jul. 04, 2013 Rise Set
Actual Time 5:45 AM PDT 8:35 PM PDT
Civil Twilight 5:13 AM PDT 9:07 PM PDT
Nautical Twilight 4:32 AM PDT 9:47 PM PDT
Astronomical Twilight 3:46 AM PDT 10:33 PM PDT
Moon 3:04 AM PDT (7/4) 5:44 PM PDT (7/4)
Length of Visible Light 15h 53m
Length of Day
14h 50m
Waning Crescent, 11% of the Moon is Illuminated
Jul 4
Waning Crescent
Jul 8
New
Jul 15
First Quarter
Jul 22
Full
Jul 29
Last Quarter

Hourly Weather History & Observations

Time (PDT) Temp. Heat Index Dew Point Humidity Pressure Visibility Wind Dir Wind Speed Gust Speed Precip Events Conditions
12:58 AM 82.2 °F 85.8 °F 69.3 °F 65% 29.92 in 10.0 mi WNW 6.9 mph - N/A   Clear
1:58 AM 82.0 °F 86.1 °F 70.7 °F 68% 29.91 in 10.0 mi NNW 5.8 mph - N/A   Clear
2:58 AM 81.9 °F 84.8 °F 68.2 °F 63% 29.91 in 10.0 mi NE 1.2 mph - N/A   Clear
3:58 AM 78.3 °F - 70.0 °F 76% 29.90 in 10.0 mi WNW 9.2 mph - N/A   Clear
4:58 AM 77.0 °F - 67.6 °F 73% 29.88 in 10.0 mi NNE 4.6 mph - N/A   Clear
5:58 AM 77.7 °F - 64.8 °F 64% 29.91 in 10.0 mi North 8.1 mph - N/A   Clear
6:58 AM 81.7 °F 82.7 °F 62.4 °F 52% 29.91 in 10.0 mi NNE 6.9 mph - N/A   Clear
7:58 AM 90.5 °F 89.8 °F 59.2 °F 35% 29.88 in 10.0 mi Variable 5.8 mph - N/A   Scattered Clouds
8:58 AM 94.8 °F 94.5 °F 59.5 °F 31% 29.88 in 10.0 mi NNE 8.1 mph - N/A   Clear
9:58 AM 95.5 °F 99.4 °F 67.1 °F 39% 29.90 in 10.0 mi West 10.4 mph - N/A   Clear
10:58 AM 97.9 °F 100.9 °F 65.3 °F 34% 29.90 in 10.0 mi WSW 5.8 mph - N/A   Partly Cloudy
11:58 AM 99.9 °F 100.9 °F 61.0 °F 28% 29.91 in 10.0 mi NW 9.2 mph - N/A   Clear
12:58 PM 101.8 °F 103.6 °F 61.5 °F 27% 29.90 in 10.0 mi Variable 5.8 mph - N/A   Clear
1:58 PM 103.8 °F 105.7 °F 61.0 °F 25% 29.88 in 10.0 mi WSW 4.6 mph - N/A   Clear
2:58 PM 106.5 °F 105.9 °F 56.8 °F 19% 29.86 in 10.0 mi Variable 6.9 mph - N/A   Clear
3:58 PM 107.2 °F 105.6 °F 54.1 °F 17% 29.83 in 10.0 mi WNW 5.8 mph - N/A   Clear
4:58 PM 108.0 °F - 49.8 °F 14% 29.81 in 10.0 mi WNW 6.9 mph - N/A   Clear
5:58 PM 108.5 °F - 49.1 °F 14% 29.78 in 10.0 mi West 6.9 mph - N/A   Clear
6:58 PM 106.9 °F - 52.9 °F 17% 29.78 in 10.0 mi WSW 5.8 mph - N/A   Clear
7:58 PM 100.0 °F 104.2 °F 65.8 °F 33% 29.77 in 10.0 mi SSW 5.8 mph - N/A   Clear
8:58 PM 88.9 °F 93.8 °F 69.6 °F 53% 29.78 in 10.0 mi SSE 6.9 mph - N/A   Clear
9:58 PM 88.0 °F 91.4 °F 67.8 °F 51% 29.81 in 10.0 mi SSE 9.2 mph - N/A   Clear
10:58 PM 86.7 °F 88.7 °F 65.3 °F 49% 29.81 in 10.0 mi SE 8.1 mph - N/A   Clear
11:58 PM 86.5 °F 87.0 °F 62.4 °F 44% 29.81 in 10.0 mi SE 13.8 mph - N/A   Clear